Location: ????
(55.5675°N, 37.6272°E)
Time: 21:34:20
(UTC+00:00)

ALOS 2 - Pass Details

Date: 14 April 2026
Orbit: 630 x 632 km, 97.9° (Epoch: 16 May)

Event Time Altitude Azimuth Distance (km) Brightness Sun altitude
Exits shadow 20:16:56 54° 91° (E) 772 2.8 -23.0°
Maximum altitude 20:17:17 56° 69° (ENE) 756 2.9 -23.1°
Drops below altitude 10° 20:21:37 10° 351° (N) 2,029 6.3 -23.3°
Sets 20:23:51 0° 348° (NNW) 2,941 7.5 -23.4°
